Regional Weather Roundup
Issued by NWS Charleston, SC

Current Version | Previous Version | Graphics & Text | Print | Product List | Glossary On
Versions: 1 2 3 4 5 6 7 8 9 10 11 12 13 14 15 16 17 18 19 20 21 22 23 24 25 26 27 28 29 30 31 32 33 34 35 36 37 38 39 40 41 42 43 44 45 46 47 48 49 50
000
ASUS42 KCHS 212312
RWRCHS

REGIONAL WEATHER ROUNDUP
NATIONAL WEATHER SERVICE CHARLESTON SC
700 PM EDT MON AUG 21 2017

NOTE: "FAIR" INDICATES FEW OR NO CLOUDS BELOW 12,000 FEET WITH NO
SIGNIFICANT WEATHER AND/OR OBSTRUCTIONS TO VISIBILITY.

NOT ALL STATIONS ARE QUALITY CONTROLLED. USE DATA WITH CAUTION...
ESPECIALLY DEWPOINT OBSERVATIONS.

SCZ027-030-031-034>040-042>050-220000-
...SOUTHEAST SOUTH CAROLINA...

CITY           SKY/WX    TMP DP  RH WIND       PRES   REMARKS
N CHARLESTON   CLOUDY    78  76  93 CALM      30.14S
WATERFRONT PRK   N/A     83  78  84 CALM      29.99S HX  93
JOHNS ISLAND   FAIR      82  77  83 CALM      30.14S HX  91
PINOPOLIS        N/A     79  75  89 CALM      30.07F
MONCKS CORNER  FAIR      75  73  94 CALM      30.14S
SUMMERVILLE    FAIR      73  73 100 CALM      30.15S
BEAUFORT MCAS  LGT RAIN  78  77  96 W3        30.14F
BEAUFORT ARPT  FAIR      77  73  88 N3        30.14F
HILTON HEAD IS MOSUNNY   81  77  89 CALM      30.14F
WALTERBORO     CLOUDY    75  73  94 CALM      30.15F
ALLENDALE      NOT AVBL

...SOUTHERN MIDLANDS AND PEE DEE...

CITY           SKY/WX    TMP DP  RH WIND       PRES   REMARKS
GEORGETOWN     FAIR      81  79  94 SE3       30.15S
KINGSTREE      FAIR      81  77  89 E5        30.14S
ORANGEBURG     PTSUNNY   81  71  71 S7        30.15S
BARNWELL       FAIR      81  75  83 VRB5      30.15S
AIKEN          FAIR      82  72  69 S8        30.17F
MANNING        FAIR      81  77  89 S15       30.15R
COLUMBIA       CLOUDY    90  72  55 S13       30.11S HX  97
SUMTER         MOSUNNY   87  74  66 S8        30.11S HX  95
FLORENCE       CLOUDY    87  75  67 S8        30.14S HX  96
MYRTLE BEACH   MOSUNNY   84  75  74 SE8       30.15F HX  92
N MYRTLE BEACH MOSUNNY   83  76  79 SE6       30.14F HX  91

$$

GAZ063-065-086>088-099>101-113>116-118-119-134>141-150-220000-
...SOUTHEAST GEORGIA...

CITY           SKY/WX    TMP DP  RH WIND       PRES   REMARKS
SAVANNAH ARPT  CLOUDY    84  77  79 NE15G24   30.15F HX  94
HUNTER AAF     CLOUDY    82  76  81 NE5       30.11F HX  90
FORT STEWART   MOSUNNY   80  73  79 NE5       30.12F
STATESBORO     SUNNY     85  71  61 S7        30.14F HX  90
SYLVANIA       MOCLDY    83  78  87 S7        30.16S HX  93
CLAXTON        FAIR      83  76  80 CALM      30.14F HX  92

...CSRA...CENTRAL AND FAR SOUTHEAST GEORGIA...

CITY           SKY/WX    TMP DP  RH WIND       PRES   REMARKS
THOMSON        CLOUDY    86  71  60 SW7       30.18S HX  92
AUGUSTA-BUSH   CLOUDY    86  75  69 SE7       30.12F HX  95
AUGUSTA-DANIEL CLOUDY    86  73  65 SE8       30.14F HX  93
SWAINSBORO     FAIR      81  75  83 SE6       30.14F
VIDALIA        SUNNY     86  77  74 SE6       30.14F HX  97
EASTMAN        FAIR      87  63  45 SE6       30.15F
HAZLEHURST     FAIR      86  63  46 SE7       30.13S
ALMA           CLOUDY    84  73  69 SE6       30.12F HX  90
WAYCROSS       CLOUDY    82  73  74 E8        30.13F
JESUP          NOT AVBL
BAXLEY         FAIR      81  75  83 SE3       30.13S
BRUNSWICK      MOSUNNY   82  72  69 E8        30.13F
SAINT SIMONS   CLOUDY    81  74  79 E5        30.12F

$$

SCZ027-028-034-036>038-045-046-048>050-GAZ119-141-220000-
...LAKE AND SUPPLEMENTAL COASTAL OBSERVATIONS...

STATION/POSITION TIME  TEMP    WIND        PRES    WAVE   SWELL
                       AIR SEA DIR/SP/G            HT/PER HT/PER/DIR
                 (UTC) (F)     (DEG/KT/KT) (MB)    (FT/S) (FT/S/D)
WINYAH BAY       2145   83     120/  6     1021.0
LAKE MURRAY      2220   91     160/  8/  9 1018.6F
ACE BASIN NERRS  2145   76        CALM     1021.0
FORT PULASKI     2248           70/  5/  6 1020.9F
SAPELO ISLAND    2200   78      70/  1     1021.0

$$

ANZ835-935-AMZ111-154-330-350-352-354-370-450-454-472-220000-
...C-MAN AND BUOY OBSERVATIONS...

STATION/POSITION TIME  TEMP    WIND        PRES    WAVE   SWELL
                       AIR SEA DIR/SP/G            HT/PER HT/PER/DIR
                 (UTC) (F)     (DEG/KT/KT) (MB)    (FT/S) (FT/S/D)
BUOY 41004       2250   81 85  170/  8/  8 1020.0F   2/ 9   2/130/ 9
BUOY 41008       2250   81 85   80/  8/ 10 1019.6F   3/ 8   2/120/ 8
FOLLY BEACH CMAN 2200   83      80/  1/  2 1021.4F
CAPERS NEARSHORE 2208   84 86  160/  6/  8 1020.5F
FRIPP NEARSHORE  2208   84     110/  8/ 10 1020.5F


STATION/POSITION TIME  TEMP    WIND        PRES    WAVE   SWELL
                       AIR SEA DIR/SP/G            HT/PER HT/PER/DIR
                 (UTC) (F)     (DEG/KT/KT) (MB)    (FT/S) (FT/S/D)
5E ST. MARYS GA  2230      84                N/A     2/ 8
FRYING PAN BUOY  2250   83 84  140/ 10/ 12 1020.5F   2/ 8   2/130/ 8
BUOY 41025       2250   83 85  210/  4/  6 1021.2F   2/ 8   2/110/ 8
CAPE LOOKOUT NC  2200   81     120/  3/  4 1021.0S
BUOY 41002       2250   83 85  130/  6/  8 1020.6F   4/ 9   3/100/ 9
BUOY 41010       2250   85 85  100/ 10/ 14 1019.2F   4/ 8   3/100/ 8
ST AUGUSTINE FL  2300   83 83   70/  6/  6 1020.0F


$$




USA.gov is the U.S. government's official web portal to all federal, state and local government web resources and services.